Theta_e
336 347 353 352 351 350 350 349 349 350 347 344 342 339 338 337 335 334 335 335 336 335 337 336 335 335 336 336 337 338 339 342 344 346 346 349 351 351 351 351 352 349 349
338 348 352 351 351 350 349 349 347 349 346 343 340 338 337 336 333 333 335 335 335 335 335 335 336 335 335 334 334 335 336 337 340 343 344 346 351 351 351 353 352 350 351
340 351 352 350 348 346 347 348 346 348 344 341 338 336 336 335 333 332 334 334 333 334 334 334 334 334 334 335 334 333 333 334 336 338 342 345 347 348 349 351 351 351 351
345 349 349 349 347 346 348 346 345 344 341 339 337 336 335 331 331 332 332 331 330 330 331 331 331 332 332 333 333 333 333 333 333 336 340 339 338 344 344 349 349 349 349
345 347 353 349 348 347 346 343 342 342 340 338 336 334 332 331 332 333 332 331 331 331 332 332 332 331 332 332 332 332 332 333 333 334 336 337 338 341 344 345 351 350 349
345 347 351 350 349 348 344 340 338 337 338 339 336 333 331 332 333 333 333 333 333 333 333 334 335 336 335 336 335 335 333 333 334 329 331 334 337 341 341 345 347 349 348
345 346 348 350 350 346 342 340 336 336 337 338 335 333 331 331 332 332 333 333 333 333 334 334 333 333 334 334 335 336 336 334 334 329 331 336 338 344 342 344 349 350 347
346 345 349 351 350 345 341 338 335 338 337 336 335 333 332 333 333 333 334 334 334 335 334 334 333 332 333 334 336 339 336 334 334 337 335 334 348 347 351 349 350 346 346
348 345 349 349 348 344 340 336 334 336 336 335 332 331 332 333 333 334 334 335 336 335 334 334 333 332 332 332 336 336 333 336 339 339 337 342 350 350 349 349 348 348 347
347 345 346 347 345 343 337 336 335 335 333 331 330 334 336 338 337 337 337 336 336 335 333 333 333 333 332 330 333 333 335 340 339 339 339 345 349 347 348 347 346 345 344
346 346 346 344 344 342 338 337 336 335 333 333 336 331 333 335 334 333 334 336 335 331 332 332 332 331 331 330 328 329 335 333 333 340 343 346 345 346 344 342 340 338 336
345 346 346 345 343 341 337 340 341 339 340 339 336 336 335 334 332 331 334 332 330 328 328 327 329 332 331 329 329 330 334 335 334 338 343 344 344 341 339 337 335 334 333
346 348 346 347 347 342 339 340 340 340 339 338 338 338 336 334 334 332 334 332 334 329 331 330 331 330 329 330 332 331 336 336 338 339 341 342 341 339 336 335 334 333 332
345 348 347 346 348 344 342 339 340 339 339 336 338 338 338 333 335 334 331 334 335 331 332 331 328 331 331 332 330 329 332 337 338 338 340 341 339 337 336 334 334 332 331
345 347 348 348 349 346 344 339 340 340 338 338 337 338 339 336 337 336 334 332 333 334 330 329 330 330 331 332 331 330 335 338 338 338 338 341 338 336 335 333 333 332 331
347 348 349 348 350 348 344 340 340 341 340 339 337 337 336 337 338 337 336 332 333 332 332 330 329 330 330 331 333 332 332 334 334 337 335 338 339 338 336 335 336 335 334
342 349 350 350 350 349 345 341 341 341 340 338 337 339 337 337 339 337 335 336 335 334 332 333 333 334 333 330 331 334 332 332 331 333 334 334 337 338 336 335 336 335 335
344 344 351 349 348 350 348 345 342 343 342 339 338 337 338 337 337 339 337 336 334 334 334 331 331 331 331 331 332 332 334 332 332 333 333 332 334 334 336 337 335 335 335
339 340 346 351 347 347 350 347 346 345 342 340 338 336 338 337 336 337 336 337 337 333 335 330 333 330 330 330 327 330 331 331 331 331 334 331 332 331 332 337 331 330 330
338 340 344 347 348 349 348 347 342 341 338 338 337 336 338 337 336 338 337 337 336 333 334 333 333 333 329 329 326 327 329 330 331 330 330 330 334 332 332 333 332 332 331
334 340 341 343 348 346 342 337 335 335 336 336 336 337 338 337 338 339 335 335 335 333 334 334 332 332 331 334 327 325 326 330 330 328 330 330 330 332 334 333 333 333 334
332 337 340 342 347 344 340 338 339 338 338 335 335 337 338 338 339 339 338 334 334 332 333 333 333 330 330 334 326 323 319 323 326 329 329 329 330 331 330 332 333 334 333
333 337 340 343 345 344 342 339 336 336 337 332 332 335 337 337 338 340 339 336 336 335 330 333 333 332 327 331 332 325 319 316 323 327 330 329 331 330 331 332 331 331 331
336 339 340 343 344 344 344 338 337 331 330 332 332 335 338 340 339 339 339 338 338 334 333 333 332 332 333 326 330 330 332 330 324 319 327 328 330 329 330 328 328 329 329
339 337 340 342 343 342 342 340 336 334 332 333 332 337 341 341 339 338 339 339 338 336 336 335 334 334 331 330 330 330 332 329 329 323 318 317 323 325 326 327 327 327 327
341 338 338 339 341 341 340 340 338 336 331 333 333 333 335 337 336 339 337 339 340 338 337 335 336 336 335 334 331 330 327 325 321 320 318 318 318 322 323 325 326 324 322
Wind_Speed
7 15 12 11 9 7 5 5 4 8 9 8 6 6 6 7 7 7 6 6 6 6 7 6 5 5 5 5 6 6 7 7 7 6 5 4 6 5 6 8 8 11 12
12 14 13 9 8 7 6 7 4 6 8 7 6 5 5 5 6 6 6 6 6 6 6 5 5 6 6 5 5 5 5 4 4 4 3 6 6 5 6 9 11 12 12
11 13 13 11 9 7 6 7 5 7 6 6 5 4 4 4 4 5 5 5 6 5 5 5 6 6 6 6 5 4 4 4 3 2 5 9 7 7 3 5 7 8 10
12 10 12 10 8 6 7 6 5 6 5 5 5 4 3 3 4 4 5 4 4 5 5 4 4 4 5 6 6 6 5 4 4 5 10 5 5 11 4 4 4 4 5
10 9 12 10 8 7 7 6 5 6 6 5 5 4 4 5 5 6 6 6 6 5 5 5 4 3 3 4 5 6 5 5 5 9 11 7 6 13 7 5 9 8 3
11 10 14 9 8 7 6 5 4 4 6 6 5 4 4 5 6 5 6 6 5 5 4 4 5 5 5 5 5 6 5 5 9 14 6 3 8 14 9 7 3 5 4
10 10 13 9 9 8 7 6 6 5 7 7 6 5 4 4 4 3 4 4 5 4 5 4 4 5 6 7 6 5 6 7 12 5 4 6 8 8 7 9 7 6 5
10 8 12 11 9 8 7 6 6 6 8 6 5 3 2 2 2 1 1 2 3 5 5 6 6 5 6 7 9 6 6 9 11 1 6 8 11 5 9 11 7 7 7
10 9 9 11 10 8 6 7 7 6 6 5 3 3 4 5 4 3 2 1 3 5 6 6 6 6 5 4 6 4 3 9 15 4 4 9 8 10 14 14 12 11 11
10 9 9 8 11 10 11 8 8 7 6 4 2 3 5 7 6 6 6 4 3 6 6 6 7 7 5 2 3 4 4 11 14 8 5 11 10 12 14 14 13 12 12
9 8 8 9 9 7 9 10 9 7 5 6 7 3 8 2 1 4 10 5 5 5 5 6 6 6 7 6 4 4 9 6 6 3 10 12 11 13 13 13 12 11 10
12 11 9 9 9 8 5 9 7 7 3 1 1 0 2 3 6 7 7 4 3 1 1 2 3 8 13 2 6 10 4 3 4 5 11 11 10 11 12 11 11 10 9
12 10 12 10 11 9 8 6 4 4 4 4 2 1 3 1 2 2 1 2 1 3 2 4 3 3 6 6 1 1 2 5 4 6 13 9 9 9 10 9 9 8 8
11 13 14 14 12 10 6 6 5 4 4 4 3 3 2 3 2 2 3 1 1 3 4 4 5 4 4 3 5 3 5 3 3 6 12 8 7 7 7 7 6 5 4
12 12 14 14 13 11 10 5 5 5 5 3 5 4 1 1 1 1 2 3 3 2 4 5 4 4 3 2 4 1 1 1 3 2 8 10 5 4 4 4 3 2 2
11 12 15 15 14 13 10 9 8 6 5 5 4 4 4 2 1 1 1 3 3 4 4 5 4 3 3 3 1 1 3 3 5 2 3 11 9 6 5 5 6 6 5
10 13 13 13 14 13 12 10 8 6 7 5 5 5 5 4 3 4 2 2 2 3 5 2 2 1 2 3 1 2 2 3 4 5 4 4 12 11 7 6 5 6 8
9 8 12 11 13 14 12 10 8 7 6 6 5 5 7 6 4 2 2 2 4 3 3 3 3 3 2 2 2 3 2 4 5 5 6 4 3 2 13 10 6 6 7
6 4 10 12 13 13 11 9 8 7 6 6 6 6 7 6 6 5 3 1 2 3 2 4 2 3 2 3 4 3 3 3 5 4 2 5 4 5 5 12 6 7 7
6 6 9 10 10 10 8 7 5 5 6 6 6 6 7 6 6 5 3 3 3 2 2 2 3 2 4 4 4 2 4 4 4 4 5 5 2 4 6 5 6 8 11
4 8 11 12 11 9 7 7 6 6 5 6 6 7 7 7 7 6 5 4 4 3 3 3 4 2 2 0 5 4 5 5 6 5 5 5 5 7 4 6 6 6 5
3 5 7 9 11 8 6 5 2 2 2 5 5 6 8 8 8 7 5 4 4 3 4 4 4 4 2 1 4 4 5 7 8 9 8 7 9 6 7 6 7 7 7
3 5 7 10 12 12 9 6 5 3 4 6 6 7 8 10 10 9 8 6 5 6 5 5 5 5 5 3 4 5 4 3 1 6 10 9 4 6 7 7 6 7 6
5 8 10 12 12 11 11 8 7 5 5 4 5 5 4 9 10 11 10 9 8 7 4 5 6 6 5 6 3 4 5 7 3 6 6 6 8 8 9 7 6 7 7
6 8 10 9 10 10 12 10 8 8 5 6 6 4 7 6 9 11 11 10 9 8 7 7 6 7 5 7 3 5 5 7 7 6 9 7 5 7 5 6 7 7 7
6 8 9 11 11 12 12 12 11 10 7 7 8 6 6 6 8 10 11 10 10 9 8 8 8 9 9 7 7 7 6 8 7 8 9 9 8 6 6 8 7 7 6
Wind_Direction
141 119 149 150 159 155 155 140 131 135 137 126 116 100 82 67 58 58 60 57 54 41 36 32 30 21 27 33 36 29 25 27 26 30 52 64 61 110 154 169 167 190 171
132 131 147 145 148 153 175 126 110 135 129 130 121 106 86 66 56 54 54 48 30 24 17 14 11 4 1 9 15 20 15 22 22 19 4 193 130 97 147 184 190 197 182
129 120 151 155 150 157 138 125 148 143 132 130 120 107 91 71 70 57 53 28 19 21 14 7 0 358 345 348 356 355 353 347 347 329 286 248 152 129 146 171 187 160 172
128 139 136 148 146 152 130 136 138 134 144 142 137 127 95 79 89 74 55 40 28 26 23 18 6 344 335 332 330 331 328 326 314 289 234 200 196 137 172 201 190 200 179
143 124 110 147 149 141 145 144 149 156 156 152 152 139 118 115 104 86 78 71 66 56 36 24 19 3 343 331 318 311 303 298 284 251 252 213 218 137 169 197 190 181 201
140 139 127 147 147 148 146 146 156 168 171 166 155 147 136 120 113 104 92 79 67 48 27 6 346 339 334 316 290 273 274 264 265 232 207 186 254 118 168 191 201 114 126
148 139 142 151 153 158 158 158 162 169 171 167 163 155 150 136 124 112 90 69 51 35 13 3 344 329 329 325 322 284 244 252 256 221 195 238 203 126 189 189 164 153 126
148 144 128 153 162 167 167 164 162 163 162 170 159 169 186 197 195 174 113 52 23 3 3 4 14 3 354 336 330 310 221 245 218 83 228 175 75 149 203 182 143 113 90
155 164 156 159 164 168 168 163 167 164 162 167 182 227 250 250 246 255 279 340 352 342 356 358 360 357 343 346 337 355 223 252 277 114 164 113 112 113 109 118 113 103 86
167 170 167 168 167 176 157 168 172 175 178 182 222 300 301 257 241 226 240 162 350 2 5 2 1 355 343 360 4 350 275 247 252 161 153 88 115 113 111 109 101 96 92
181 188 183 179 160 184 143 148 178 183 195 205 200 197 231 259 38 189 59 57 42 16 22 16 0 341 297 217 192 263 250 234 151 194 92 107 120 115 112 108 105 100 93
194 196 190 188 178 166 175 156 197 157 184 125 62 201 268 30 27 24 82 112 97 60 214 254 292 278 255 331 177 213 254 212 168 199 97 120 121 116 113 113 109 104 96
203 196 193 188 186 180 201 183 190 174 172 167 183 264 52 325 86 76 70 100 107 181 305 295 285 297 3 331 26 307 282 237 160 101 101 127 126 123 120 119 116 111 104
208 202 192 192 188 195 198 189 204 205 194 202 152 180 127 207 148 344 19 41 262 31 336 330 318 355 304 311 336 318 247 222 164 110 121 134 134 133 134 133 127 116 109
218 205 206 201 188 185 196 190 244 215 201 180 199 142 98 185 67 263 59 13 14 352 356 345 351 348 324 293 330 280 233 201 96 265 132 139 155 157 169 166 166 174 205
248 224 214 198 191 186 192 202 211 215 206 212 198 153 173 218 173 9 63 28 32 356 358 335 11 337 335 318 16 34 196 171 208 199 207 151 168 196 211 218 217 224 246
264 229 215 205 188 196 186 194 214 220 215 219 202 183 200 213 173 319 25 331 27 350 329 341 270 237 275 236 231 220 228 215 192 208 246 263 156 186 204 231 238 245 250
291 249 217 199 191 193 184 193 213 216 224 224 210 193 200 190 211 245 283 343 33 301 330 356 319 294 295 273 248 247 209 218 179 193 225 248 237 230 176 177 207 250 265
17 186 193 202 197 188 179 199 214 220 225 224 215 207 194 211 200 248 265 352 268 311 329 328 310 312 295 297 238 215 229 228 205 194 194 218 222 256 288 155 185 244 255
71 136 179 190 193 187 173 200 214 221 228 219 211 214 194 219 220 225 252 299 267 283 250 351 325 346 308 323 303 192 225 225 234 232 211 238 267 261 242 275 244 225 200
108 159 174 178 176 181 181 191 196 219 218 227 226 216 208 227 217 211 244 195 233 263 313 273 275 215 246 161 254 180 204 223 233 235 227 247 250 239 304 260 260 266 250
130 173 168 170 166 189 187 205 254 298 240 249 222 215 226 216 225 225 246 206 207 235 225 247 260 289 237 323 298 283 231 186 215 227 244 245 256 278 266 253 285 276 281
174 163 171 178 179 183 186 177 176 158 220 240 235 221 214 219 218 220 210 232 192 247 216 216 228 258 288 217 292 307 265 259 19 201 209 248 299 276 292 275 247 269 264
182 167 179 189 186 190 192 189 195 214 212 280 256 219 226 219 215 212 209 208 210 223 236 218 225 263 241 273 212 227 303 329 292 274 205 224 227 251 244 276 260 245 251
165 180 190 188 196 208 196 213 193 214 203 235 245 229 234 207 226 213 206 211 215 225 208 244 227 230 240 270 268 259 268 249 233 271 293 289 249 242 247 251 260 289 274
201 190 187 188 199 208 214 203 207 211 217 217 222 228 217 205 203 213 210 216 221 229 228 222 225 228 240 260 288 305 307 294 299 293 284 281 280 286 289 287 271 259 267